Flag for U.S.A. Weather past 2 weeks in Bryan – College Station, Texas, U.S.A.

Now
35 °F

Light rain. Fog.


Feels Like: 23 °F
Forecast: 32 / 42 °F
Wind: 23 mph from North

Location: Easterwood Field

Current Time: Mar 5, 2015 at 1:35:10 AM

Latest Report: Mar 5, 2015 at 12:53 AM


Visibility: 6 mi

Pressure: 30.18 "Hg

Humidity: 88%

Dew point: 32 °F

Location of Bryan – College StationLocation

Historic Weather in Bryan – College Station — Graph

°F

Bryan – College Station temperature yesterday

Maximum temperature yesterday: 76 °F (at 11:53 AM)
Minimum temperature yesterday: 35 °F (at 10:53 PM)
Average temperature yesterday: 59 °F

Past Weeks' High & Low Weather Summary

 TemperatureHumidityPressure
High76 °F (Mar 3, 2:53 PM)100% (Feb 25, 6:01 AM)30.46 "Hg (Feb 25, 6:01 AM)
Low30 °F (Feb 24, 3:53 AM)31% (Feb 18, 3:53 PM)29.78 "Hg (Mar 4, 2:53 PM)
Average47 °F80%30.14 "Hg
* Reported Feb 18 12:53 AM — Midnight between Mar 4 and Mar 5, Bryan – College Station, Weather by CustomWeather, © 2015

Note: Actual official high and low records may vary slightly from our data, if they occured in-between our weather recording intervals... More about our weather records

Advertising

Bryan – College Station weather history for previous 24 hours

 ConditionsComfort  
Time TempWeatherWind HumidityBarometerVisibility
12:00 AM
Thu, Mar 5
35 °FLight snow. Low clouds.23 mph88%30.16 "Hg8 mi
10:53 PM
Wed, Mar 4
35 °FLight rain. Fog.23 mph92%30.15 "Hg6 mi
9:53 PM37 °FLight snow. Fog.22 mph89%30.10 "Hg6 mi
8:53 PM38 °FOvercast.29 mph86%30.05 "Hg10 mi
8:03 PM39 °FLow clouds.25 mph93%30.01 "Hg7 mi
7:53 PM40 °FOvercast.22 mph89%29.99 "Hg9 mi
7:04 PM42 °FLight rain. Mostly cloudy.16 mph92%29.96 "Hg9 mi
6:53 PM43 °FRain. Mostly cloudy.20 mph89%29.96 "Hg7 mi
5:53 PM47 °FLow clouds.18 mph90%29.89 "Hg10 mi
5:03 PM50 °FLight rain. Cloudy.22 mph89%29.87 "Hg10 mi
4:53 PM51 °FLight rain. Mostly cloudy.22 mph89%29.85 "Hg10 mi
4:03 PM60 °FMostly cloudy.15 mph86%29.82 "Hg10 mi
2:53 PM75 °FMostly cloudy.9 mph71%29.78 "Hg10 mi
1:53 PM76 °FCloudy.13 mph67%29.80 "Hg10 mi
12:53 PM75 °FLight rain. Cloudy.10 mph71%29.82 "Hg9 mi
11:53 AM76 °FBroken clouds.16 mph69%29.84 "Hg10 mi
10:53 AM75 °FMostly cloudy.15 mph79%29.86 "Hg8 mi
9:53 AM71 °FFog.15 mph90%29.86 "Hg6 mi
8:53 AM69 °FFog.8 mph93%29.85 "Hg4 mi
7:53 AM67 °FFog.7 mph97%29.85 "Hg4 mi
6:53 AM66 °FFog.5 mph96%29.84 "Hg4 mi
6:01 AM66 °FFog.3 mph96%29.85 "Hg4 mi
5:53 AM66 °FFog.3 mph96%29.83 "Hg4 mi
5:02 AM66 °FFog.No wind93%29.84 "Hg4 mi
4:53 AM66 °FFog.No wind96%29.83 "Hg5 mi
4:00 AM66 °FFog.No wind96%29.83 "Hg6 mi
2:53 AM66 °FLight rain. Low clouds.3 mph96%29.82 "Hg7 mi
1:53 AM67 °FMostly cloudy.9 mph93%29.83 "Hg9 mi
Weather by CustomWeather, © 2015

See weather overviewHow to use our weather pages